{"data":{"norad_id":57090,"intl_designator":"2023-088AU","name":"STARLINK-6254","alt_names":[],"object_type":"PAYLOAD","status":"ACTIVE","operator":null,"country":"US","launch_date":"2023-06-22","launch_site_code":"AFWTR","launch_vehicle":null,"mission":null,"orbit_class":"UNKNOWN","rcs_meters":null,"size_class":null,"mass_kg":null,"dimensions":null,"purposes":["comms"],"wikipedia_slug":null,"has_3d_model":false,"image_url":null,"decayed_at":null,"tle_current":{"epoch":"2026-09-20T14:32:00.422016Z","epoch_age_seconds":111880,"freshness":"FRESH","line1":"1 57090U 23088AU  26263.60556044 -.00000195  00000+0  24480-5 0  9999","line2":"2 57090  43.0047  75.0446 0001718 270.0064  90.0591 15.27573110180312","mean_motion":15.2757311,"eccentricity":0.0001718,"inclination_deg":43.0047,"raan_deg":75.0446,"arg_perigee_deg":270.0064,"mean_anomaly_deg":90.0591,"bstar":2.448e-6,"rev_number":18031,"period_min":94.267173896508,"perigee_km":481.89097194012,"apogee_km":484.24848257161,"semimajor_km":6861.2067272559,"source":"CELESTRAK","updated_at":"2026-09-21T09:00:33.556722Z"}}}